Вернуться в каталог

STARLINK-32409

АктивенСвязьVLEO
NORAD 61591·PAYLOAD·🇺🇸 United States

Запущен Oct 18, 2024 с Cape Canaveral Space Force Station

Loading…

Ближайшие Пролёты (ближайшие 24 часа)

TLE

СвежийSource: CelesTrak SupGP

Эпоха: Sep 14, 2026, 22:40 UTC

1 61591C 24187T   26257.94493056  .00033290  00000+0  98345-3 0  2571
2 61591  53.1580 247.6176 0001291  94.4502  53.6496 15.34377007    17

Отслеживайте STARLINK-32409 в реальном времени с AllMySat

Download on the App Store